Year,Month,Day,Hour,Minute,Value (Times are PST for temperature in C)
2015,04,19,00,00,8.90
2015,04,19,00,01,8.90
2015,04,19,00,02,8.90
2015,04,19,00,03,8.90
2015,04,19,00,04,8.90
2015,04,19,00,05,8.90
2015,04,19,00,06,8.90
2015,04,19,00,07,9.00
2015,04,19,00,08,9.00
2015,04,19,00,09,9.00
2015,04,19,00,10,9.00
2015,04,19,00,11,9.00
2015,04,19,00,12,9.10
2015,04,19,00,13,9.10
2015,04,19,00,14,9.10
2015,04,19,00,15,9.00
2015,04,19,00,16,9.00
2015,04,19,00,17,9.00
2015,04,19,00,18,8.90
2015,04,19,00,19,8.90
2015,04,19,00,20,8.90
2015,04,19,00,21,8.90
2015,04,19,00,22,8.80
2015,04,19,00,23,8.80
2015,04,19,00,24,8.80
2015,04,19,00,25,8.80
2015,04,19,00,26,8.80
2015,04,19,00,27,8.70
2015,04,19,00,28,8.70
2015,04,19,00,29,8.70
2015,04,19,00,30,8.60
2015,04,19,00,31,8.60
2015,04,19,00,32,8.60
2015,04,19,00,33,8.50
2015,04,19,00,34,8.50
2015,04,19,00,35,8.50
2015,04,19,00,36,8.40
2015,04,19,00,37,8.40
2015,04,19,00,38,8.40
2015,04,19,00,39,8.40
2015,04,19,00,40,8.40
2015,04,19,00,41,8.40
2015,04,19,00,42,8.30
2015,04,19,00,43,8.30
2015,04,19,00,44,8.30
2015,04,19,00,45,8.30
2015,04,19,00,46,8.30
2015,04,19,00,47,8.30
2015,04,19,00,48,8.20
2015,04,19,00,49,8.20
2015,04,19,00,50,8.20
2015,04,19,00,51,8.20
2015,04,19,00,52,8.20
2015,04,19,00,53,8.20
2015,04,19,00,54,8.20
2015,04,19,00,55,8.10
2015,04,19,00,56,8.10
2015,04,19,00,57,8.10
2015,04,19,00,58,8.10
2015,04,19,00,59,8.10
2015,04,19,01,00,8.10
2015,04,19,01,01,8.00
2015,04,19,01,02,8.00
2015,04,19,01,03,8.10
2015,04,19,01,04,8.10
2015,04,19,01,05,8.10
2015,04,19,01,06,8.10
2015,04,19,01,07,8.00
2015,04,19,01,08,8.00
2015,04,19,01,09,8.00
2015,04,19,01,10,8.00
2015,04,19,01,11,8.00
2015,04,19,01,12,8.00
2015,04,19,01,13,7.90
2015,04,19,01,14,7.90
2015,04,19,01,15,8.00
2015,04,19,01,16,8.00
2015,04,19,01,17,8.00
2015,04,19,01,18,8.00
2015,04,19,01,19,8.00
2015,04,19,01,20,8.00
2015,04,19,01,21,8.00
2015,04,19,01,22,8.00
2015,04,19,01,23,7.90
2015,04,19,01,24,7.90
2015,04,19,01,25,7.90
2015,04,19,01,26,7.90
2015,04,19,01,27,7.90
2015,04,19,01,28,7.90
2015,04,19,01,29,7.80
2015,04,19,01,30,7.80
2015,04,19,01,31,7.80
2015,04,19,01,32,7.80
2015,04,19,01,33,7.80
2015,04,19,01,34,7.70
2015,04,19,01,35,7.70
2015,04,19,01,36,7.70
2015,04,19,01,37,7.70
2015,04,19,01,38,7.70
2015,04,19,01,39,7.60
2015,04,19,01,40,7.60
2015,04,19,01,41,7.60
2015,04,19,01,42,7.60
2015,04,19,01,43,7.60
2015,04,19,01,44,7.60
2015,04,19,01,45,7.60
2015,04,19,01,46,7.60
2015,04,19,01,47,7.60
2015,04,19,01,48,7.50
2015,04,19,01,49,7.50
2015,04,19,01,50,7.50
2015,04,19,01,51,7.50
2015,04,19,01,52,7.50
2015,04,19,01,53,7.50
2015,04,19,01,54,7.40
2015,04,19,01,55,7.40
2015,04,19,01,56,7.40
2015,04,19,01,57,7.40
2015,04,19,01,58,7.40
2015,04,19,01,59,7.40
2015,04,19,02,00,7.40
2015,04,19,02,01,7.30
2015,04,19,02,02,7.30
2015,04,19,02,03,7.30
2015,04,19,02,04,7.30
2015,04,19,02,05,7.30
2015,04,19,02,06,7.30
2015,04,19,02,07,7.30
2015,04,19,02,08,7.30
2015,04,19,02,09,7.20
2015,04,19,02,10,7.20
2015,04,19,02,11,7.20
2015,04,19,02,12,7.20
2015,04,19,02,13,7.20
2015,04,19,02,14,7.20
2015,04,19,02,15,7.20
2015,04,19,02,16,7.20
2015,04,19,02,17,7.20
2015,04,19,02,18,7.30
2015,04,19,02,19,7.40
2015,04,19,02,20,7.50
2015,04,19,02,21,7.50
2015,04,19,02,22,7.60
2015,04,19,02,23,7.60
2015,04,19,02,24,7.60
2015,04,19,02,25,7.50
2015,04,19,02,26,7.50
2015,04,19,02,27,7.40
2015,04,19,02,28,7.40
2015,04,19,02,29,7.30
2015,04,19,02,30,7.20
2015,04,19,02,31,7.20
2015,04,19,02,32,7.20
2015,04,19,02,33,7.20
2015,04,19,02,34,7.20
2015,04,19,02,35,7.20
2015,04,19,02,36,7.20
2015,04,19,02,37,7.20
2015,04,19,02,38,7.20
2015,04,19,02,39,7.20
2015,04,19,02,40,7.20
2015,04,19,02,41,7.20
2015,04,19,02,42,7.20
2015,04,19,02,43,7.20
2015,04,19,02,44,7.20
2015,04,19,02,45,7.20
2015,04,19,02,46,7.20
2015,04,19,02,47,7.30
2015,04,19,02,48,7.40
2015,04,19,02,49,7.50
2015,04,19,02,50,7.60
2015,04,19,02,51,7.60
2015,04,19,02,52,7.70
2015,04,19,02,53,7.70
2015,04,19,02,54,7.70
2015,04,19,02,55,7.80
2015,04,19,02,56,7.80
2015,04,19,02,57,7.80
2015,04,19,02,58,7.90
2015,04,19,02,59,7.90
2015,04,19,03,00,7.90
2015,04,19,03,01,7.90
2015,04,19,03,02,7.80
2015,04,19,03,03,7.80
2015,04,19,03,04,7.80
2015,04,19,03,05,7.80
2015,04,19,03,06,7.70
2015,04,19,03,07,7.70
2015,04,19,03,08,7.70
2015,04,19,03,09,7.70
2015,04,19,03,10,7.70
2015,04,19,03,11,7.60
2015,04,19,03,12,7.60
2015,04,19,03,13,7.50
2015,04,19,03,14,7.50
2015,04,19,03,15,7.50
2015,04,19,03,16,7.50
2015,04,19,03,17,7.50
2015,04,19,03,18,7.50
2015,04,19,03,19,7.50
2015,04,19,03,20,7.50
2015,04,19,03,21,7.50
2015,04,19,03,22,7.50
2015,04,19,03,23,7.50
2015,04,19,03,24,7.50
2015,04,19,03,25,7.50
2015,04,19,03,26,7.60
2015,04,19,03,27,7.60
2015,04,19,03,28,7.60
2015,04,19,03,29,7.60
2015,04,19,03,30,7.60
2015,04,19,03,31,7.50
2015,04,19,03,32,7.50
2015,04,19,03,33,7.50
2015,04,19,03,34,7.50
2015,04,19,03,35,7.50
2015,04,19,03,36,7.50
2015,04,19,03,37,7.50
2015,04,19,03,38,7.50
2015,04,19,03,39,7.60
2015,04,19,03,40,7.60
2015,04,19,03,41,7.60
2015,04,19,03,42,7.60
2015,04,19,03,43,7.60
2015,04,19,03,44,7.60
2015,04,19,03,45,7.60
2015,04,19,03,46,7.60
2015,04,19,03,47,7.60
2015,04,19,03,48,7.70
2015,04,19,03,49,7.70
2015,04,19,03,50,7.70
2015,04,19,03,51,7.70
2015,04,19,03,52,7.70
2015,04,19,03,53,7.70
2015,04,19,03,54,7.70
2015,04,19,03,55,7.70
2015,04,19,03,56,7.70
2015,04,19,03,57,7.70
2015,04,19,03,58,7.70
2015,04,19,03,59,7.70
2015,04,19,04,00,7.70
2015,04,19,04,01,7.70
2015,04,19,04,02,7.70
2015,04,19,04,03,7.70
2015,04,19,04,04,7.70
2015,04,19,04,05,7.70
2015,04,19,04,06,7.70
2015,04,19,04,07,7.70
2015,04,19,04,08,7.60
2015,04,19,04,09,7.60
2015,04,19,04,10,7.60
2015,04,19,04,11,7.60
2015,04,19,04,12,7.50
2015,04,19,04,13,7.50
2015,04,19,04,14,7.40
2015,04,19,04,15,7.40
2015,04,19,04,16,7.40
2015,04,19,04,17,7.30
2015,04,19,04,18,7.30
2015,04,19,04,19,7.20
2015,04,19,04,20,7.20
2015,04,19,04,21,7.20
2015,04,19,04,22,7.10
2015,04,19,04,23,7.10
2015,04,19,04,24,7.00
2015,04,19,04,25,7.00
2015,04,19,04,26,6.90
2015,04,19,04,27,6.90
2015,04,19,04,28,6.90
2015,04,19,04,29,6.90
2015,04,19,04,30,6.80
2015,04,19,04,31,6.80
2015,04,19,04,32,6.80
2015,04,19,04,33,6.80
2015,04,19,04,34,6.80
2015,04,19,04,35,6.70
2015,04,19,04,36,6.70
2015,04,19,04,37,6.70
2015,04,19,04,38,6.60
2015,04,19,04,39,6.60
2015,04,19,04,40,6.60
2015,04,19,04,41,6.60
2015,04,19,04,42,6.60
2015,04,19,04,43,6.60
2015,04,19,04,44,6.60
2015,04,19,04,45,6.60
2015,04,19,04,46,6.60
2015,04,19,04,47,6.60
2015,04,19,04,48,6.50
2015,04,19,04,49,6.50
2015,04,19,04,50,6.50
2015,04,19,04,51,6.50
2015,04,19,04,52,6.40
2015,04,19,04,53,6.40
2015,04,19,04,54,6.40
2015,04,19,04,55,6.40
2015,04,19,04,56,6.40
2015,04,19,04,57,6.40
2015,04,19,04,58,6.40
2015,04,19,04,59,6.30
2015,04,19,05,00,6.30
2015,04,19,05,01,6.30
2015,04,19,05,02,6.30
2015,04,19,05,03,6.30
2015,04,19,05,04,6.30
2015,04,19,05,05,6.30
2015,04,19,05,06,6.40
2015,04,19,05,07,6.40
2015,04,19,05,08,6.40
2015,04,19,05,09,6.40
2015,04,19,05,10,6.40
2015,04,19,05,11,6.40
2015,04,19,05,12,6.40
2015,04,19,05,13,6.40
2015,04,19,05,14,6.40
2015,04,19,05,15,6.40
2015,04,19,05,16,6.40
2015,04,19,05,17,6.30
2015,04,19,05,18,6.30
2015,04,19,05,19,6.30
2015,04,19,05,20,6.30
2015,04,19,05,21,6.30
2015,04,19,05,22,6.30
2015,04,19,05,23,6.30
2015,04,19,05,24,6.30
2015,04,19,05,25,6.30
2015,04,19,05,26,6.30
2015,04,19,05,27,6.30
2015,04,19,05,28,6.30
2015,04,19,05,29,6.30
2015,04,19,05,30,6.30
2015,04,19,05,31,6.30
2015,04,19,05,32,6.30
2015,04,19,05,33,6.30
2015,04,19,05,34,6.30
2015,04,19,05,35,6.30
2015,04,19,05,36,6.30
2015,04,19,05,37,6.20
2015,04,19,05,38,6.20
2015,04,19,05,39,6.20
2015,04,19,05,40,6.20
2015,04,19,05,41,6.20
2015,04,19,05,42,6.20
2015,04,19,05,43,6.20
2015,04,19,05,44,6.20
2015,04,19,05,45,6.30
2015,04,19,05,46,6.30
2015,04,19,05,47,6.30
2015,04,19,05,48,6.30
2015,04,19,05,49,6.30
2015,04,19,05,50,6.30
2015,04,19,05,51,6.30
2015,04,19,05,52,6.30
2015,04,19,05,53,6.30
2015,04,19,05,54,6.30
2015,04,19,05,55,6.30
2015,04,19,05,56,6.30
2015,04,19,05,57,6.30
2015,04,19,05,58,6.30
2015,04,19,05,59,6.30
2015,04,19,06,00,6.30
2015,04,19,06,01,6.30
2015,04,19,06,02,6.30
2015,04,19,06,03,6.30
2015,04,19,06,04,6.30
2015,04,19,06,05,6.20
2015,04,19,06,06,6.20
2015,04,19,06,07,6.20
2015,04,19,06,08,6.20
2015,04,19,06,09,6.20
2015,04,19,06,10,6.20
2015,04,19,06,11,6.20
2015,04,19,06,12,6.20
2015,04,19,06,13,6.20
2015,04,19,06,14,6.20
2015,04,19,06,15,6.20
2015,04,19,06,16,6.20
2015,04,19,06,17,6.30
2015,04,19,06,18,6.30
2015,04,19,06,19,6.30
2015,04,19,06,20,6.30
2015,04,19,06,21,6.30
2015,04,19,06,22,6.30
2015,04,19,06,23,6.30
2015,04,19,06,24,6.30
2015,04,19,06,25,6.30
2015,04,19,06,26,6.30
2015,04,19,06,27,6.30
2015,04,19,06,28,6.30
2015,04,19,06,29,6.30
2015,04,19,06,30,6.30
2015,04,19,06,31,6.30
2015,04,19,06,32,6.30
2015,04,19,06,33,6.30
2015,04,19,06,34,6.20
2015,04,19,06,35,6.20
2015,04,19,06,36,6.20
2015,04,19,06,37,6.20
2015,04,19,06,38,6.20
2015,04,19,06,39,6.20
2015,04,19,06,40,6.30
2015,04,19,06,41,6.30
2015,04,19,06,42,6.30
2015,04,19,06,43,6.30
2015,04,19,06,44,6.30
2015,04,19,06,45,6.30
2015,04,19,06,46,6.30
2015,04,19,06,47,6.30
2015,04,19,06,48,6.30
2015,04,19,06,49,6.30
2015,04,19,06,50,6.30
2015,04,19,06,51,6.30
2015,04,19,06,52,6.30
2015,04,19,06,53,6.30
2015,04,19,06,54,6.30
2015,04,19,06,55,6.40
2015,04,19,06,56,6.40
2015,04,19,06,57,6.40
2015,04,19,06,58,6.40
2015,04,19,06,59,6.40
2015,04,19,07,00,6.40
2015,04,19,07,01,6.50
2015,04,19,07,02,6.50
2015,04,19,07,03,6.60
2015,04,19,07,04,6.60
2015,04,19,07,05,6.60
2015,04,19,07,06,6.70
2015,04,19,07,07,6.70
2015,04,19,07,08,6.70
2015,04,19,07,09,6.80
2015,04,19,07,10,6.80
2015,04,19,07,11,6.80
2015,04,19,07,12,6.80
2015,04,19,07,13,6.90
2015,04,19,07,14,6.90
2015,04,19,07,15,6.90
2015,04,19,07,16,7.00
2015,04,19,07,17,7.00
2015,04,19,07,18,7.10
2015,04,19,07,19,7.10
2015,04,19,07,20,7.10
2015,04,19,07,21,7.20
2015,04,19,07,22,7.20
2015,04,19,07,23,7.20
2015,04,19,07,24,7.20
2015,04,19,07,25,7.30
2015,04,19,07,26,7.30
2015,04,19,07,27,7.40
2015,04,19,07,28,7.40
2015,04,19,07,29,7.50
2015,04,19,07,30,7.50
2015,04,19,07,31,7.50
2015,04,19,07,32,7.60
2015,04,19,07,33,7.60
2015,04,19,07,34,7.70
2015,04,19,07,35,7.70
2015,04,19,07,36,7.70
2015,04,19,07,37,7.70
2015,04,19,07,38,7.80
2015,04,19,07,39,7.80
2015,04,19,07,40,7.90
2015,04,19,07,41,7.90
2015,04,19,07,42,8.00
2015,04,19,07,43,8.10
2015,04,19,07,44,8.10
2015,04,19,07,45,8.20
2015,04,19,07,46,8.20
2015,04,19,07,47,8.30
2015,04,19,07,48,8.30
2015,04,19,07,49,8.40
2015,04,19,07,50,8.40
2015,04,19,07,51,8.40
2015,04,19,07,52,8.50
2015,04,19,07,53,8.50
2015,04,19,07,54,8.60
2015,04,19,07,55,8.60
2015,04,19,07,56,8.60
2015,04,19,07,57,8.70
2015,04,19,07,58,8.70
2015,04,19,07,59,8.70
2015,04,19,08,00,8.70
2015,04,19,08,01,8.70
2015,04,19,08,02,8.80
2015,04,19,08,03,8.80
2015,04,19,08,04,8.90
2015,04,19,08,05,8.90
2015,04,19,08,06,9.00
2015,04,19,08,07,9.00
2015,04,19,08,08,9.10
2015,04,19,08,09,9.20
2015,04,19,08,10,9.20
2015,04,19,08,11,9.30
2015,04,19,08,12,9.30
2015,04,19,08,13,9.40
2015,04,19,08,14,9.50
2015,04,19,08,15,9.60
2015,04,19,08,16,9.70
2015,04,19,08,17,9.80
2015,04,19,08,18,9.90
2015,04,19,08,19,10.00
2015,04,19,08,20,10.00
2015,04,19,08,21,10.10
2015,04,19,08,22,10.20
2015,04,19,08,23,10.30
2015,04,19,08,24,10.30
2015,04,19,08,25,10.40
2015,04,19,08,26,10.50
2015,04,19,08,27,10.60
2015,04,19,08,28,10.70
2015,04,19,08,29,10.80
2015,04,19,08,30,10.90
2015,04,19,08,31,11.00
2015,04,19,08,32,11.10
2015,04,19,08,33,11.20
2015,04,19,08,34,11.20
2015,04,19,08,35,11.30
2015,04,19,08,36,11.30
2015,04,19,08,37,11.30
2015,04,19,08,38,11.20
2015,04,19,08,39,11.10
2015,04,19,08,40,10.90
2015,04,19,08,41,10.90
2015,04,19,08,42,10.80
2015,04,19,08,43,10.70
2015,04,19,08,44,10.70
2015,04,19,08,45,10.70
2015,04,19,08,46,10.70
2015,04,19,08,47,10.70
2015,04,19,08,48,10.70
2015,04,19,08,49,10.80
2015,04,19,08,50,10.80
2015,04,19,08,51,10.80
2015,04,19,08,52,10.80
2015,04,19,08,53,10.80
2015,04,19,08,54,10.80
2015,04,19,08,55,10.90
2015,04,19,08,56,10.90
2015,04,19,08,57,10.90
2015,04,19,08,58,10.90
2015,04,19,08,59,11.00
2015,04,19,09,00,11.00
2015,04,19,09,01,10.90
2015,04,19,09,02,10.80
2015,04,19,09,03,10.80
2015,04,19,09,04,10.70
2015,04,19,09,05,10.70
2015,04,19,09,06,10.70
2015,04,19,09,07,10.70
2015,04,19,09,08,10.70
2015,04,19,09,09,10.70
2015,04,19,09,10,10.60
2015,04,19,09,11,10.60
2015,04,19,09,12,10.60
2015,04,19,09,13,10.60
2015,04,19,09,14,10.60
2015,04,19,09,15,10.70
2015,04,19,09,16,10.70
2015,04,19,09,17,10.80
2015,04,19,09,18,10.80
2015,04,19,09,19,10.90
2015,04,19,09,20,10.90
2015,04,19,09,21,11.00
2015,04,19,09,22,11.10
2015,04,19,09,23,11.20
2015,04,19,09,24,11.30
2015,04,19,09,25,11.40
2015,04,19,09,26,11.60
2015,04,19,09,27,11.90
2015,04,19,09,28,12.00
2015,04,19,09,29,12.10
2015,04,19,09,30,12.20
2015,04,19,09,31,12.20
2015,04,19,09,32,12.20
2015,04,19,09,33,12.20
2015,04,19,09,34,12.20
2015,04,19,09,35,12.30
2015,04,19,09,36,12.30
2015,04,19,09,37,12.30
2015,04,19,09,38,12.30
2015,04,19,09,39,12.40
2015,04,19,09,40,12.50
2015,04,19,09,41,12.60
2015,04,19,09,42,12.60
2015,04,19,09,43,12.70
2015,04,19,09,44,12.60
2015,04,19,09,45,12.60
2015,04,19,09,46,12.50
2015,04,19,09,47,12.50
2015,04,19,09,48,12.50
2015,04,19,09,49,12.60
2015,04,19,09,50,12.60
2015,04,19,09,51,12.80
2015,04,19,09,52,12.90
2015,04,19,09,53,12.90
2015,04,19,09,54,13.00
2015,04,19,09,55,13.00
2015,04,19,09,56,13.20
2015,04,19,09,57,13.30
2015,04,19,09,58,13.40
2015,04,19,09,59,13.50
2015,04,19,10,00,13.50
2015,04,19,10,01,13.60
2015,04,19,10,02,13.60
2015,04,19,10,03,13.50
2015,04,19,10,04,13.50
2015,04,19,10,05,13.40
2015,04,19,10,06,13.50
2015,04,19,10,07,13.50
2015,04,19,10,08,13.60
2015,04,19,10,09,13.60
2015,04,19,10,10,13.70
2015,04,19,10,11,13.80
2015,04,19,10,12,13.90
2015,04,19,10,13,14.10
2015,04,19,10,14,14.30
2015,04,19,10,15,14.40
2015,04,19,10,16,14.60
2015,04,19,10,17,14.60
2015,04,19,10,18,14.60
2015,04,19,10,19,14.60
2015,04,19,10,20,14.50
2015,04,19,10,21,14.40
2015,04,19,10,22,14.20
2015,04,19,10,23,14.00
2015,04,19,10,24,14.00
2015,04,19,10,25,14.10
2015,04,19,10,26,14.20
2015,04,19,10,27,14.10
2015,04,19,10,28,14.10
2015,04,19,10,29,14.20
2015,04,19,10,30,14.20
2015,04,19,10,31,14.20
2015,04,19,10,32,14.00
2015,04,19,10,33,13.90
2015,04,19,10,34,13.80
2015,04,19,10,35,13.90
2015,04,19,10,36,13.90
2015,04,19,10,37,13.90
2015,04,19,10,38,13.90
2015,04,19,10,39,13.80
2015,04,19,10,40,13.80
2015,04,19,10,41,13.70
2015,04,19,10,42,13.60
2015,04,19,10,43,13.60
2015,04,19,10,44,13.70
2015,04,19,10,45,13.70
2015,04,19,10,46,13.70
2015,04,19,10,47,13.70
2015,04,19,10,48,13.80
2015,04,19,10,49,13.90
2015,04,19,10,50,13.90
2015,04,19,10,51,13.90
2015,04,19,10,52,14.00
2015,04,19,10,53,14.00
2015,04,19,10,54,14.10
2015,04,19,10,55,14.20
2015,04,19,10,56,14.10
2015,04,19,10,57,14.00
2015,04,19,10,58,13.90
2015,04,19,10,59,13.90
2015,04,19,11,00,14.00
2015,04,19,11,01,14.10
2015,04,19,11,02,14.20
2015,04,19,11,03,14.30
2015,04,19,11,04,14.20
2015,04,19,11,05,14.00
2015,04,19,11,06,13.90
2015,04,19,11,07,13.80
2015,04,19,11,08,13.60
2015,04,19,11,09,13.50
2015,04,19,11,10,13.50
2015,04,19,11,11,13.30
2015,04,19,11,12,13.00
2015,04,19,11,13,12.80
2015,04,19,11,14,12.90
2015,04,19,11,15,12.90
2015,04,19,11,16,13.00
2015,04,19,11,17,13.10
2015,04,19,11,18,13.20
2015,04,19,11,19,13.30
2015,04,19,11,20,13.40
2015,04,19,11,21,13.40
2015,04,19,11,22,13.30
2015,04,19,11,23,13.40
2015,04,19,11,24,13.30
2015,04,19,11,25,13.30
2015,04,19,11,26,13.30
2015,04,19,11,27,13.20
2015,04,19,11,28,13.20
2015,04,19,11,29,13.20
2015,04,19,11,30,13.10
2015,04,19,11,31,13.10
2015,04,19,11,32,13.30
2015,04,19,11,33,13.40
2015,04,19,11,34,13.50
2015,04,19,11,35,13.70
2015,04,19,11,36,13.80
2015,04,19,11,37,13.80
2015,04,19,11,38,13.90
2015,04,19,11,39,14.00
2015,04,19,11,40,14.10
2015,04,19,11,41,14.10
2015,04,19,11,42,14.10
2015,04,19,11,43,14.20
2015,04,19,11,44,14.20
2015,04,19,11,45,14.20
2015,04,19,11,46,14.10
2015,04,19,11,47,14.00
2015,04,19,11,48,14.00
2015,04,19,11,49,14.00
2015,04,19,11,50,14.10
2015,04,19,11,51,14.00
2015,04,19,11,52,14.00
2015,04,19,11,53,14.00
2015,04,19,11,54,14.10
2015,04,19,11,55,14.20
2015,04,19,11,56,14.30
2015,04,19,11,57,14.60
2015,04,19,11,58,14.80
2015,04,19,11,59,15.00
2015,04,19,12,00,15.00
2015,04,19,12,01,15.20
2015,04,19,12,02,15.40
2015,04,19,12,03,15.50
2015,04,19,12,04,15.50
2015,04,19,12,05,15.60
2015,04,19,12,06,15.70
2015,04,19,12,07,15.90
2015,04,19,12,08,16.10
2015,04,19,12,09,16.10
2015,04,19,12,10,16.10
2015,04,19,12,11,16.20
2015,04,19,12,12,16.30
2015,04,19,12,13,16.30
2015,04,19,12,14,16.30
2015,04,19,12,15,16.30
2015,04,19,12,16,16.30
2015,04,19,12,17,16.40
2015,04,19,12,18,16.50
2015,04,19,12,19,16.60
2015,04,19,12,20,16.70
2015,04,19,12,21,16.80
2015,04,19,12,22,16.90
2015,04,19,12,23,17.00
2015,04,19,12,24,16.90
2015,04,19,12,25,16.90
2015,04,19,12,26,16.90
2015,04,19,12,27,17.00
2015,04,19,12,28,17.00
2015,04,19,12,29,16.90
2015,04,19,12,30,16.90
2015,04,19,12,31,16.90
2015,04,19,12,32,16.80
2015,04,19,12,33,16.80
2015,04,19,12,34,16.80
2015,04,19,12,35,16.70
2015,04,19,12,36,16.50
2015,04,19,12,37,16.40
2015,04,19,12,38,16.40
2015,04,19,12,39,16.30
2015,04,19,12,40,16.30
2015,04,19,12,41,16.40
2015,04,19,12,42,16.40
2015,04,19,12,43,16.40
2015,04,19,12,44,16.60
2015,04,19,12,45,16.70
2015,04,19,12,46,16.80
2015,04,19,12,47,16.90
2015,04,19,12,48,16.90
2015,04,19,12,49,16.90
2015,04,19,12,50,16.90
2015,04,19,12,51,16.90
2015,04,19,12,52,16.80
2015,04,19,12,53,16.80
2015,04,19,12,54,16.80
2015,04,19,12,55,16.70
2015,04,19,12,56,16.60
2015,04,19,12,57,16.70
2015,04,19,12,58,16.70
2015,04,19,12,59,16.80
2015,04,19,13,00,16.70
2015,04,19,13,01,16.70
2015,04,19,13,02,16.80
2015,04,19,13,03,16.90
2015,04,19,13,04,17.00
2015,04,19,13,05,17.10
2015,04,19,13,06,17.10
2015,04,19,13,07,17.20
2015,04,19,13,08,17.20
2015,04,19,13,09,17.20
2015,04,19,13,10,17.20
2015,04,19,13,11,17.20
2015,04,19,13,12,17.30
2015,04,19,13,13,17.40
2015,04,19,13,14,17.40
2015,04,19,13,15,17.60
2015,04,19,13,16,17.40
2015,04,19,13,17,17.30
2015,04,19,13,18,17.20
2015,04,19,13,19,16.80
2015,04,19,13,20,16.50
2015,04,19,13,21,16.40
2015,04,19,13,22,16.40
2015,04,19,13,23,16.30
2015,04,19,13,24,16.20
2015,04,19,13,25,16.10
2015,04,19,13,26,16.00
2015,04,19,13,27,16.00
2015,04,19,13,28,16.00
2015,04,19,13,29,16.10
2015,04,19,13,30,16.30
2015,04,19,13,31,16.50
2015,04,19,13,32,16.60
2015,04,19,13,33,16.60
2015,04,19,13,34,16.50
2015,04,19,13,35,16.30
2015,04,19,13,36,16.20
2015,04,19,13,37,16.30
2015,04,19,13,38,16.40
2015,04,19,13,39,16.50
2015,04,19,13,40,16.60
2015,04,19,13,41,16.60
2015,04,19,13,42,16.60
2015,04,19,13,43,16.60
2015,04,19,13,44,16.70
2015,04,19,13,45,16.80
2015,04,19,13,46,16.80
2015,04,19,13,47,16.80
2015,04,19,13,48,16.80
2015,04,19,13,49,16.90
2015,04,19,13,50,17.10
2015,04,19,13,51,17.20
2015,04,19,13,52,17.30
2015,04,19,13,53,17.40
2015,04,19,13,54,17.40
2015,04,19,13,55,17.50
2015,04,19,13,56,17.50
2015,04,19,13,57,17.40
2015,04,19,13,58,17.40
2015,04,19,13,59,17.40
2015,04,19,14,00,17.50
2015,04,19,14,01,17.50
2015,04,19,14,02,17.50
2015,04,19,14,03,17.40
2015,04,19,14,04,17.30
2015,04,19,14,05,17.30
2015,04,19,14,06,17.30
2015,04,19,14,07,17.40
2015,04,19,14,08,17.50
2015,04,19,14,09,17.60
2015,04,19,14,10,17.80
2015,04,19,14,11,17.80
2015,04,19,14,12,17.70
2015,04,19,14,13,17.50
2015,04,19,14,14,17.40
2015,04,19,14,15,17.40
2015,04,19,14,16,17.40
2015,04,19,14,17,17.40
2015,04,19,14,18,17.40
2015,04,19,14,19,17.30
2015,04,19,14,20,17.00
2015,04,19,14,21,16.80
2015,04,19,14,22,16.70
2015,04,19,14,23,16.70
2015,04,19,14,24,16.60
2015,04,19,14,25,16.70
2015,04,19,14,26,16.80
2015,04,19,14,27,17.00
2015,04,19,14,28,17.00
2015,04,19,14,29,16.90
2015,04,19,14,30,16.90
2015,04,19,14,31,16.80
2015,04,19,14,32,16.70
2015,04,19,14,33,16.60
2015,04,19,14,34,16.50
2015,04,19,14,35,16.50
2015,04,19,14,36,16.50
2015,04,19,14,37,16.60
2015,04,19,14,38,16.80
2015,04,19,14,39,16.70
2015,04,19,14,40,16.70
2015,04,19,14,41,16.70
2015,04,19,14,42,16.60
2015,04,19,14,43,16.50
2015,04,19,14,44,16.50
2015,04,19,14,45,16.60
2015,04,19,14,46,16.80
2015,04,19,14,47,16.90
2015,04,19,14,48,16.80
2015,04,19,14,49,16.70
2015,04,19,14,50,16.70
2015,04,19,14,51,16.70
2015,04,19,14,52,16.70
2015,04,19,14,53,16.70
2015,04,19,14,54,16.80
2015,04,19,14,55,17.00
2015,04,19,14,56,17.00
2015,04,19,14,57,16.90
2015,04,19,14,58,16.70
2015,04,19,14,59,16.50
2015,04,19,15,00,16.40
2015,04,19,15,01,16.20
2015,04,19,15,02,16.20
2015,04,19,15,03,16.10
2015,04,19,15,04,16.10
2015,04,19,15,05,16.10
2015,04,19,15,06,16.20
2015,04,19,15,07,16.20
2015,04,19,15,08,16.30
2015,04,19,15,09,16.30
2015,04,19,15,10,16.40
2015,04,19,15,11,16.60
2015,04,19,15,12,16.70
2015,04,19,15,13,16.90
2015,04,19,15,14,17.00
2015,04,19,15,15,17.20
2015,04,19,15,16,17.30
2015,04,19,15,17,17.40
2015,04,19,15,18,17.40
2015,04,19,15,19,17.40
2015,04,19,15,20,17.40
2015,04,19,15,21,17.50
2015,04,19,15,22,17.60
2015,04,19,15,23,17.80
2015,04,19,15,24,17.80
2015,04,19,15,25,17.70
2015,04,19,15,26,17.80
2015,04,19,15,27,17.90
2015,04,19,15,28,18.00
2015,04,19,15,29,18.10
2015,04,19,15,30,18.20
2015,04,19,15,31,18.20
2015,04,19,15,32,18.20
2015,04,19,15,33,18.10
2015,04,19,15,34,18.00
2015,04,19,15,35,17.90
2015,04,19,15,36,17.90
2015,04,19,15,37,17.90
2015,04,19,15,38,17.90
2015,04,19,15,39,17.90
2015,04,19,15,40,18.00
2015,04,19,15,41,18.10
2015,04,19,15,42,18.20
2015,04,19,15,43,18.20
2015,04,19,15,44,18.30
2015,04,19,15,45,18.30
2015,04,19,15,46,18.30
2015,04,19,15,47,18.20
2015,04,19,15,48,18.20
2015,04,19,15,49,18.20
2015,04,19,15,50,18.30
2015,04,19,15,51,18.40
2015,04,19,15,52,18.40
2015,04,19,15,53,18.30
2015,04,19,15,54,18.30
2015,04,19,15,55,18.10
2015,04,19,15,56,17.90
2015,04,19,15,57,17.70
2015,04,19,15,58,17.70
2015,04,19,15,59,17.80
2015,04,19,16,00,17.80
2015,04,19,16,01,17.90
2015,04,19,16,02,17.90
2015,04,19,16,03,17.80
2015,04,19,16,04,17.70
2015,04,19,16,05,17.70
2015,04,19,16,06,17.60
2015,04,19,16,07,17.60
2015,04,19,16,08,17.40
2015,04,19,16,09,17.30
2015,04,19,16,10,17.30
2015,04,19,16,11,17.30
2015,04,19,16,12,17.30
2015,04,19,16,13,17.30
2015,04,19,16,14,17.30
2015,04,19,16,15,17.30
2015,04,19,16,16,17.30
2015,04,19,16,17,17.40
2015,04,19,16,18,17.40
2015,04,19,16,19,17.50
2015,04,19,16,20,17.50
2015,04,19,16,21,17.40
2015,04,19,16,22,17.40
2015,04,19,16,23,17.40
2015,04,19,16,24,17.40
2015,04,19,16,25,17.30
2015,04,19,16,26,17.30
2015,04,19,16,27,17.30
2015,04,19,16,28,17.30
2015,04,19,16,29,17.40
2015,04,19,16,30,17.50
2015,04,19,16,31,17.60
2015,04,19,16,32,17.60
2015,04,19,16,33,17.60
2015,04,19,16,34,17.70
2015,04,19,16,35,17.70
2015,04,19,16,36,17.70
2015,04,19,16,37,17.70
2015,04,19,16,38,17.70
2015,04,19,16,39,17.70
2015,04,19,16,40,17.70
2015,04,19,16,41,17.70
2015,04,19,16,42,17.70
2015,04,19,16,43,17.60
2015,04,19,16,44,17.60
2015,04,19,16,45,17.60
2015,04,19,16,46,17.70
2015,04,19,16,47,17.70
2015,04,19,16,48,17.80
2015,04,19,16,49,17.70
2015,04,19,16,50,17.70
2015,04,19,16,51,17.70
2015,04,19,16,52,17.70
2015,04,19,16,53,17.60
2015,04,19,16,54,17.60
2015,04,19,16,55,17.60
2015,04,19,16,56,17.60
2015,04,19,16,57,17.60
2015,04,19,16,58,17.50
2015,04,19,16,59,17.50
2015,04,19,17,00,17.50
2015,04,19,17,01,17.60
2015,04,19,17,02,17.70
2015,04,19,17,03,17.60
2015,04,19,17,04,17.50
2015,04,19,17,05,17.40
2015,04,19,17,06,17.30
2015,04,19,17,07,17.30
2015,04,19,17,08,17.40
2015,04,19,17,09,17.50
2015,04,19,17,10,17.60
2015,04,19,17,11,17.60
2015,04,19,17,12,17.70
2015,04,19,17,13,17.70
2015,04,19,17,14,17.70
2015,04,19,17,15,17.70
2015,04,19,17,16,17.70
2015,04,19,17,17,17.80
2015,04,19,17,18,17.80
2015,04,19,17,19,17.80
2015,04,19,17,20,17.80
2015,04,19,17,21,17.80
2015,04,19,17,22,17.80
2015,04,19,17,23,17.80
2015,04,19,17,24,17.70
2015,04,19,17,25,17.60
2015,04,19,17,26,17.60
2015,04,19,17,27,17.60
2015,04,19,17,28,17.60
2015,04,19,17,29,17.50
2015,04,19,17,30,17.50
2015,04,19,17,31,17.40
2015,04,19,17,32,17.40
2015,04,19,17,33,17.40
2015,04,19,17,34,17.40
2015,04,19,17,35,17.50
2015,04,19,17,36,17.70
2015,04,19,17,37,17.70
2015,04,19,17,38,17.80
2015,04,19,17,39,17.80
2015,04,19,17,40,17.80
2015,04,19,17,41,17.90